Tracking 25953 objects as of 15-Aug-2022
HD Live streaming from Space Station
objects crossing your sky now

OBJECT B

Track OBJECT B now!


NORAD ID: 45986
Int'l Code: 2020-053B
Perigee: 35,789.0 km
Apogee: 35,798.2 km
Inclination: 0.0 °
Period: 1,436.1 minutes
Semi major axis: 42164 km
RCS: Unknown
Launch date: July 30, 2020
Source: Commonwealth of Independent States (former USSR) (CIS)
Launch site: TYURATAM MISSILE AND SPACE COMPLEX (TTMTR)

Note: This is a ROCKET BODY
aabbcc
Your satellite tracking list
Your tracking list is empty




NASA's NSSDC Master Catalog

Two Line Element Set (TLE):
1 45986U 20053B   22224.88518734 -.00000155  00000-0  00000-0 0  9990
2 45986   0.0430 254.9607 0001085  50.4826  54.5275  1.00272333  7559
Source of the keplerian elements: AFSPC